Location: Unspecified
(33.9239°N, 118.0544°W)
Time: 15:18:33
(UTC-07:00)

Daily predictions for brighter satellites

Satellite Brightness Start Highest point End
(mag) Time Altitude Azimuth Time Altitude Azimuth Time Altitude Azimuth
DELTA 2 R/B (1) 4.2 18:35:22 10° W 18:40:46 48° N 18:46:10 10° ENE
Atlas Centaur 2 2.3 18:36:18 10° WSW 18:40:50 56° S 18:46:37 10° E
NOSS 3-4 (A) 4.0 18:34:22 10° NNW 18:41:35 90° W 18:49:16 10° SSE
NOSS 3-4 (C) 4.0 18:34:28 10° NNW 18:41:41 89° NE 18:49:22 10° SSE
Cosmos 1484 Rocket 3.2 18:38:12 10° S 18:41:55 64° W 18:45:38 10° NNW
YAOGAN 1 2.5 18:39:57 10° SSE 18:44:13 69° ENE 18:48:32 10° N
USA 267 3.9 18:39:37 10° ENE 18:45:34 37° SE 18:51:29 10° SSW
Meteor 1-16 Rocket 4.1 18:40:20 10° S 18:45:38 90° ENE 18:50:59 10° N
Cosmos 1727 Rocket 4.4 18:41:02 10° N 18:46:59 40° E 18:52:53 10° SSE
ALOS 3.2 18:43:11 10° SE 18:47:07 27° ENE 18:51:03 10° NNE
CZ-4 R/B 2.0 18:46:19 10° S 18:50:31 65° W 18:54:42 10° NNW
Cosmos 1703 4.1 18:49:43 10° NNE 18:53:08 28° E 18:56:31 10° SE
GP-B 3.1 18:49:10 10° N 18:53:34 61° E 18:57:56 10° S
CZ-3 Stage 3 0.8 18:51:46 10° WSW 18:53:36 33° S 18:55:05 12° ESE
FENGYUN 3A 4.2 18:49:50 10° SE 18:54:40 35° ENE 18:59:32 10° N
CZ-4C R/B 3.5 18:51:56 10° SE 18:54:52 16° ESE 18:57:34 11° ENE
Tiangong 1 0.9 18:55:47 10° NW 18:58:26 51° NNE 19:00:25 15° E
MOS 1 4.2 18:53:46 10° SSE 18:59:23 73° ENE 19:05:03 10° N
SL-08 R/B 4.4 18:54:25 10° S 19:00:37 81° E 19:06:46 10° N
Cosmos-2242 4.3 18:56:37 10° SSW 19:00:42 44° W 19:04:48 10° N
ASTRO E2 3.2 18:58:29 10° WSW 19:02:21 50° S 19:05:26 15° E
Cosmos 1400 Rocket 3.1 18:58:45 10° N 19:02:39 45° E 19:06:27 10° SSE
GRACE-2 4.3 19:02:15 10° SSE 19:04:37 33° E 19:06:58 10° NNE
ERS-2 3.7 19:01:27 10° S 19:04:55 40° W 19:08:26 10° NNW
GRACE-1 4.1 19:04:03 10° SSE 19:06:28 37° E 19:08:53 10° NNE
SKYMED 2 4.1 19:06:43 10° N 19:11:00 63° WNW 19:15:17 10° SSW
Cosmos 1908 3.7 19:07:58 10° SSE 19:11:38 39° E 19:15:17 10° NNE
Cosmos 1624 Rocket 4.0 19:06:51 10° NNW 19:12:06 88° WSW 19:17:20 10° SSE
Cosmos 1371 Rocket 4.4 19:09:06 10° NNW 19:14:26 68° WSW 19:19:43 10° S
Thor Agena Rocket 3.7 19:10:05 10° NNE 19:15:00 48° E 19:19:51 10° S
Cosmos 1743 Rocket 3.5 19:13:33 10° N 19:17:58 84° E 19:22:21 10° S
Iridium 4 Rocket 4.0 19:13:37 10° SSE 19:18:34 42° E 19:23:52 10° NNE
H-2A R/B 3.7 19:18:13 21° ESE 19:19:40 26° ENE 19:22:57 10° NNE
Cosmos 2151 2.9 19:16:07 10° N 19:20:23 67° E 19:24:36 10° SSE
Cosmos 1842 Rocket 3.9 19:16:43 10° SSW 19:21:09 73° W 19:25:38 10° N
SL-16 R/B 2.5 19:15:35 10° NNW 19:21:14 69° WSW 19:26:50 10° S
FALCON 9 R/B 2.6 19:20:10 10° WSW 19:22:16 25° SSW 19:25:32 11° SE
GENESIS II 4.1 19:19:02 10° SSW 19:23:00 83° ESE 19:26:52 11° NNE
Delta 2 Rocket 2.8 19:19:36 10° WSW 19:23:15 88° NNW 19:24:46 31° ENE
Cosmos 1726 4.2 19:21:54 10° SE 19:22:25 13° SE 19:22:25 13° SE
Cosmos 44 3.7 19:21:06 10° S 19:25:01 32° ESE 19:26:24 26° ENE
FREGAT/IRIS 4.0 19:28:23 23° NNE 19:28:23 23° NNE 19:29:56 10° N
Centaur D AC-28 3.9 19:25:55 10° S 19:29:06 20° SE 19:30:48 18° ESE
ISS -2.6 19:27:22 10° WNW 19:30:28 41° SW 19:33:01 14° SSE
APEX 3.2 19:27:46 10° S 19:31:14 40° ESE 19:31:24 40° ESE
Cosmos 2221 2.4 19:28:09 10° S 19:32:22 61° E 19:36:39 10° NNE
Cosmos 44 Rocket 3.5 19:31:23 10° S 19:35:50 43° ESE 19:37:31 31° ENE
Cosmos 1500 Rocket 3.8 19:35:58 10° NNW 19:40:18 70° W 19:44:35 10° S
Cosmos 1315 Rocket 2.7 19:39:37 10° N 19:43:41 73° E 19:47:47 10° SSE
Cosmos 158 Rocket 3.8 19:41:11 10° S 19:46:08 79° ESE 19:51:16 10° NNE
Cosmos 1535 Rocket 4.4 19:40:55 10° SSE 19:46:54 56° E 19:52:51 10° NNE
Cosmos 921 Rocket 3.0 19:43:01 10° N 19:47:25 59° ENE 19:48:43 41° SE
Cosmos 1269 Rocket 3.9 19:48:05 10° S 19:53:17 64° ESE 19:57:37 15° NNE
Cosmos 2058 4.1 19:50:19 10° NNW 19:54:17 44° W 19:58:13 10° SSW
COSMOS 2428 3.2 19:53:25 10° N 19:58:23 39° NE 19:58:23 39° NE
RESURS DK-1 2.1 19:54:46 10° NNW 19:58:54 79° ENE 19:59:03 77° E
Cosmos 2098 Rocket 2.9 19:56:12 10° S 20:00:01 88° E 20:04:57 10° N
Cosmos 2333 Rocket 3.9 19:57:49 10° N 20:00:04 18° NNE 20:00:04 18° NNE
FengYun 1-2 T 4.1 19:58:00 10° SSE 20:03:32 89° W 20:09:03 10° NNW
SJ-6B 3.8 20:06:33 34° N 20:06:33 34° N 20:08:46 10° N
Cosmos 2360 Rocket 2.3 19:59:45 10° NNW 20:05:24 76° WSW 20:09:58 16° SSE
Cosmos 2219 3.1 20:00:26 10° SSW 20:06:09 77° ESE 20:09:45 24° NNE
Cosmos 2322 Rocket 4.5 20:06:53 10° NW 20:11:14 24° WSW 20:15:35 10° SSW
SL-24 R/B - RUBIN 2 3.6 20:07:24 10° NNW 20:11:47 75° N 20:11:47 75° N
MOS 1-B Rocket 3.9 20:16:03 55° NE 20:16:03 55° NE 20:21:09 10° N
Cosmos 1452 Rocket 4.0 20:12:19 10° NNW 20:17:28 59° WSW 20:21:11 19° S
Cosmos 1805 Rocket 4.4 20:14:03 10° N 20:16:56 41° N 20:16:56 41° N
Cosmos 1821 Rocket 4.2 20:12:38 10° SSW 20:18:43 69° W 20:24:54 10° N
OAO 1 Rocket 4.3 20:15:38 10° WSW 20:20:53 88° WSW 20:20:53 88° WSW
DELTA 2 R/B (1) 3.8 20:22:15 10° WNW 20:27:28 57° N 20:27:28 57° N
Cosmos 1934 Rocket 4.1 20:21:30 10° S 20:27:49 79° W 20:34:14 10° N
USA 267 3.8 20:24:25 22° NNE 20:28:37 53° NW 20:34:54 10° WSW
Atlas Centaur 2 2.5 20:24:26 10° W 20:29:46 57° S 20:29:50 57° S
Cosmos 2322 4.2 20:25:33 10° NNW 20:31:08 56° WSW 20:33:23 34° SSW
CZ-4C R/B 2.7 20:37:39 10° SW 20:42:36 53° NW 20:42:52 52° NW
Cosmos 2123 Rocket 4.2 20:44:52 10° N 20:50:18 66° NW 20:50:18 66° NW
Cosmos 2219 Rocket 3.8 20:50:27 10° NNW 20:52:47 26° NNW 20:52:47 26° NNW
